Regional Weather Roundup
Issued by NWS

Home | Current Version | Previous Version | Text Only | Print | Product List | Glossary Off
Versions: 1 2 3 4 5 6 7 8 9 10 11 12 13 14 15 16 17 18 19 20 21 22 23 24 25 26 27 28 29 30 31 32 33 34 35 36 37 38 39 40 41 42 43 44 45 46 47 48 49 50

000
ASUS43 KLMK 260102
RWRKY
KENTUCKY REGIONAL WEATHER ROUNDUP
NATIONAL WEATHER SERVICE LOUISVILLE KY
900 PM EDT FRI JUL 25 2014

NOTE "FAIR" INDICATES FEW OR NO CLOUDS BELOW 12,000 FEET
WITH NO SIGNIFICANT WEATHER AND/OR OBSTRUCTIONS TO VISIBILITY.

KYZ001>023-026-027-061>063-070>075-260200-
WESTERN AND SOUTH CENTRAL KENTUCKY

CITY           SKY/WX    TMP DP  RH WIND       PRES   REMARKS
PADUCAH        MOCLDY    76  64  66 CALM      29.92R
HENDERSON      PTCLDY    70  61  73 CALM      29.95R
OWENSBORO      CLOUDY    73  60  63 S5        29.95R
HOPKINSVILLE   CLOUDY    78  62  58 S6        29.94R
BOWLING GREEN  MOCLDY    79  57  46 S7        29.96R
GLASGOW        MOCLDY    77  57  50 SE3       29.96R
$$

KYZ024-025-028>034-038-045-046-053-260200-
NORTH CENTRAL KENTUCKY

CITY           SKY/WX    TMP DP  RH WIND       PRES   REMARKS
LOUISVILLE/SDF MOCLDY    78  57  48 SE8       29.95F
LOUISVILLE/LOU MOCLDY    78  57  48 SE5       29.96F
FORT KNOX      MOCLDY    74  60  61 E6        29.96R
$$

KYZ035>037-039>044-047>052-055>060-089>105-260200-
NORTHEAST KENTUCKY

CITY           SKY/WX    TMP DP  RH WIND       PRES   REMARKS
LEXINGTON      CLOUDY    74  59  59 S5        30.01R
COVINGTON      CLOUDY    72  58  61 S5        29.98F
FRANKFORT      CLOUDY    74  59  59 SE6       29.98S
$$

KYZ054-064>069-076>088-106>120-260200-
SOUTHEAST KENTUCKY

CITY           SKY/WX    TMP DP  RH WIND       PRES   REMARKS
JACKSON        CLEAR     70  57  63 CALM      30.04S
LONDON         CLEAR     71  62  73 CALM      30.02F
SOMERSET       CLOUDY    70  59  68 CALM      30.01F
MIDDLESBORO    PTCLDY    71  65  82 CALM      30.02F
MONTICELLO     PTCLDY    71  64  78 CALM      30.01F
$$




USA.gov is the U.S. government's official web portal to all federal, state and local government web resources and services.